[[{"header":{"parameterUnit":"m.s-1","parameterCategory":1,"la1":30.2991,"la2":30.254,"lo1":-89.0895,"lo2":-89.0444,"dy":0.0017,"dx":0.0017,"nx":28,"ny":28,"refTime":"2024-06-06T03:00:00:Z","depth":0,"parameterNumber":2,"parameterNumberName":"U-component_of_WINDS"},"data":[0,0,0,0,0,0,0,0,0,0,0,0,0,0,0,0,0,0,0,0,0,0,0,0,0,0,0,0,0,0,0,0,0,0,0,0,0,0,0,0,0,0,0,0,0,0,0,0,0,0,0,0,0,0,0,0,0,0,4.3731,4.3734,0,4.3997,4.4,4.4003,4.4027,4.4025,4.4022,4.4019,4.4285,4.4294,4.4304,0,0,0,0,0,0,0,0,0,0,0,0,0,4.3238,4.3247,4.3731,4.3734,4.3738,4.3997,4.4,4.4004,4.4028,4.4025,4.4021,4.4018,4.4282,4.4293,4.4305,0,0,0,0,0,0,0,0,0,0,0,0,0,4.3472,4.325,4.373,4.3781,4.3788,4.3996,4.4,4.4005,4.4029,4.4024,4.402,4.4016,4.4278,4.4292,4.4306,4.448,0,0,4.4351,4.4357,0,0,0,0,0,0,0,0,4.3459,4.349,4.377,4.3778,4.3786,4.3975,4.3924,4.4164,4.403,4.3937,4.4019,4.4014,4.4185,4.4207,4.4265,4.4492,4.4504,4.4352,4.4361,4.4367,4.4371,0,0,0,0,0,0,0,4.3443,4.3479,4.3836,4.3774,4.3784,4.3788,4.3817,4.3969,4.4081,4.3945,4.3947,4.3979,4.4188,4.4251,4.4272,4.4507,4.4351,4.4364,4.4373,4.4379,4.4888,4.4892,0,0,0,0,0,0,4.3418,4.3465,4.3828,4.3844,4.3609,4.3801,4.3833,4.3919,4.4079,4.41,4.3982,4.3979,4.4229,4.4255,4.4281,4.4494,4.4367,4.438,4.4389,4.4883,4.4889,4.4894,0,0,0,0,0,0,4.3407,4.345,4.3817,4.3656,4.3703,4.3814,4.391,4.3926,4.3989,4.4108,4.4127,4.4027,4.4226,4.4261,4.443,4.4504,4.4387,4.44,4.4877,4.4885,4.4892,4.4922,0,0,0,0,0,0,4.3393,4.3446,4.3515,4.3657,4.3711,4.3964,4.3914,4.3934,4.4015,4.4014,4.4155,4.4174,4.4226,4.4409,4.4445,4.4522,4.4411,4.4871,4.4881,4.4889,4.4915,4.4929,4.4942,0,0,0,0,0,4.3375,4.3512,4.3518,4.3562,4.38,4.3968,4.3999,4.4058,4.4021,4.409,4.4166,4.4169,4.449,4.4426,4.4467,4.4549,4.4867,4.4878,4.4889,4.4909,4.4926,4.4941,0,0,0,0,0,0,4.3373,4.3531,4.354,4.3727,4.3834,4.3972,4.4061,4.4075,4.4193,4.4186,4.4252,4.4284,4.4451,4.4517,4.4442,4.4724,4.4674,4.4694,4.4676,4.4693,4.4706,4.4687,4.4424,0,0,0,0,0,4.3395,4.352,4.3651,4.3803,4.3856,4.3949,4.4025,4.4061,4.4174,4.4219,4.4307,4.4414,4.4539,4.462,4.4741,4.4924,4.4954,4.5001,4.5014,4.5025,4.5041,4.5141,4.5163,4.493,4.493,4.4929,0,0,4.344,4.3542,4.3617,4.3805,4.3892,4.4019,4.3987,4.4123,4.4216,4.4238,4.4405,4.4473,4.4597,4.4773,4.4856,4.4834,4.5111,4.5038,4.5046,4.5056,4.5154,4.5176,4.5195,4.4937,4.4936,4.4935,0,0,4.3587,4.3678,4.3814,4.3902,4.4035,4.4096,4.4129,4.4265,4.4312,4.448,4.4499,4.461,4.4824,4.4911,4.4984,4.5163,4.517,4.52,4.527,4.5367,4.5385,4.5402,4.5464,4.5486,4.5216,4.5216,4.5216,0,4.3626,4.382,4.3882,4.4017,4.4098,4.4126,4.4263,4.4345,4.451,4.4565,4.4538,4.4807,4.4893,4.509,4.5133,4.5191,4.5229,4.5184,4.5378,4.5395,4.5412,4.5472,4.5496,4.5218,4.5218,4.5218,4.5218,0,4.3861,4.3994,4.4088,4.4249,4.4341,4.4476,4.4556,4.4642,4.4669,4.4732,4.4901,4.5005,4.5147,4.5197,4.5225,4.5398,4.538,4.5365,4.5316,4.5435,4.5493,4.5517,4.5222,4.5221,4.5221,4.522,0,0,4.4015,4.4208,4.4241,4.4314,4.4462,4.4566,4.4701,4.4843,4.4914,4.5026,4.514,4.5321,4.5308,4.539,4.5427,4.5512,4.5646,4.5487,4.5491,4.5512,4.5841,4.5851,4.5877,4.5652,4.5656,4.566,4.583,0,4.4178,4.4423,4.4482,4.4691,4.4814,4.4841,4.4959,4.5061,4.5123,4.5235,4.5302,4.5429,4.5403,4.5452,4.5538,4.5612,4.5713,4.56,4.5756,4.5761,4.5724,4.5908,4.5919,4.6075,4.5854,4.5858,4.586,0,4.4402,4.4521,4.4742,4.4874,4.4928,4.5033,4.5167,4.5274,4.539,4.5429,4.552,4.5549,4.5688,4.5632,4.5824,4.5746,4.5813,4.5859,4.5866,4.5882,4.5818,4.5928,4.6126,4.6149,4.5897,4.5894,4.5891,0,4.4491,4.4706,4.4867,4.4928,4.5086,4.5159,4.5227,4.534,4.542,4.5536,4.5589,4.5719,4.5789,4.5888,4.595,4.5903,4.6136,4.6085,4.617,4.6169,4.6218,4.6214,4.6428,4.6262,4.6261,4.6261,4.626,0,4.4667,4.4801,4.4909,4.5007,4.5157,4.5223,4.5369,4.5437,4.5537,4.5647,4.5678,4.578,4.5856,4.5968,4.6017,4.6168,4.6199,4.6233,4.6244,4.623,4.6226,4.6275,4.6265,4.6267,4.6266,4.6265,4.6264,0,4.4792,4.487,4.5046,4.5181,4.5218,4.5322,4.5437,4.5532,4.5595,4.5734,4.577,4.5867,4.6001,4.6073,4.6239,4.6272,4.644,4.6446,4.6402,4.6407,4.6487,4.6478,4.6741,4.6778,4.6587,4.6588,4.659,0,4.4899,4.5003,4.5149,4.5227,4.5297,4.5421,4.5504,4.5572,4.5656,4.5796,4.5873,4.6009,4.6122,4.6333,4.6417,4.6544,4.6552,4.6635,4.6571,4.6553,4.6552,4.6545,4.6555,4.6646,4.6648,4.6649,4.665,0,4.5081,4.5114,4.5233,4.5367,4.5465,4.5573,4.5679,4.5739,4.5824,4.5917,4.6056,4.6143,4.6313,4.6447,4.658,4.6648,4.6663,4.667,4.6696,4.6682,4.6652,4.6669,4.6432,4.6663,4.6662,4.6661,4.666,4.666,4.52,4.5293,4.541,4.5542,4.5629,4.5728,4.5824,4.5899,4.6016,4.6162,4.6194,4.6339,4.645,4.6632,4.6703,4.6816,4.6799,4.6837,4.6847,4.6855,4.6858,4.6635,4.684,4.684,4.684,4.6839,4.6839,0,4.5382,4.5459,4.558,4.5728,4.5831,4.5838,4.5956,4.6041,4.6169,4.6273,4.6383,4.654,4.667,4.6764,4.6895,4.6967,4.6977,4.6999,4.6994,4.7009,4.6866,4.683,4.6989,4.6989,4.6989,4.6989,4.6989,4.6989,4.5489,4.5647,4.5694,4.5894,4.597,4.6114,4.6181,4.6271,4.6354,4.6529,4.6638,4.6699,4.6798,4.6937,4.7055,4.7079,4.7125,4.7147,4.7171,4.7035,4.7019,4.7004,4.697,4.7157,4.7157,4.7305,4.7306,4.7307]},{"header":{"parameterUnit":"m.s-1","parameterCategory":1,"la1":30.2991,"la2":30.254,"lo1":-89.0895,"lo2":-89.0444,"dy":0.0017,"dx":0.0017,"nx":28,"ny":28,"refTime":"2024-06-06T03:00:00:Z","depth":0,"parameterNumber":3,"parameterNumberName":"V-component_of_WINDS"},"data":[0,0,0,0,0,0,0,0,0,0,0,0,0,0,0,0,0,0,0,0,0,0,0,0,0,0,0,0,0,0,0,0,0,0,0,0,0,0,0,0,0,0,0,0,0,0,0,0,0,0,0,0,0,0,0,0,0,0,1.1736,1.174,0,1.2108,1.2112,1.2116,1.2256,1.2255,1.2253,1.2252,1.2688,1.27,1.2713,0,0,0,0,0,0,0,0,0,0,0,0,0,1.1196,1.1205,1.1735,1.174,1.1744,1.2107,1.2112,1.2117,1.2256,1.2255,1.2253,1.2251,1.2683,1.2699,1.2714,0,0,0,0,0,0,0,0,0,0,0,0,0,1.1487,1.1208,1.1735,1.1856,1.1871,1.2106,1.2112,1.2119,1.2257,1.2255,1.2253,1.2251,1.2678,1.2697,1.2716,1.2874,0,0,1.2775,1.2783,0,0,0,0,0,0,0,0,1.147,1.1507,1.1834,1.1848,1.1865,1.2132,1.2082,1.2374,1.2257,1.2112,1.2252,1.225,1.2508,1.2541,1.2617,1.2895,1.2913,1.2777,1.2788,1.2796,1.2802,0,0,0,0,0,0,0,1.145,1.1492,1.1885,1.1839,1.1858,1.1909,1.1948,1.2138,1.2319,1.2124,1.2135,1.2174,1.2517,1.2598,1.2628,1.292,1.2776,1.2793,1.2805,1.2812,1.3353,1.3356,0,0,0,0,0,0,1.1402,1.1474,1.1873,1.1895,1.1657,1.192,1.1964,1.205,1.2316,1.2354,1.2176,1.2179,1.2566,1.2606,1.2644,1.2847,1.2796,1.2814,1.2825,1.3351,1.3354,1.3357,0,0,0,0,0,0,1.139,1.1436,1.1858,1.1687,1.1744,1.1931,1.2027,1.2058,1.2138,1.2354,1.2393,1.2222,1.2566,1.2617,1.2813,1.2864,1.2823,1.284,1.3347,1.3352,1.3355,1.3253,0,0,0,0,0,0,1.1374,1.1431,1.148,1.1686,1.1753,1.2003,1.2029,1.2066,1.2165,1.2173,1.2408,1.2446,1.2569,1.2783,1.2832,1.289,1.2856,1.3344,1.3349,1.3354,1.3253,1.3253,1.3254,0,0,0,0,0,1.1354,1.1448,1.1481,1.1529,1.1815,1.2005,1.2045,1.2169,1.2168,1.2227,1.2367,1.2438,1.2851,1.2802,1.2858,1.2923,1.3341,1.3348,1.3354,1.3253,1.3253,1.3254,0,0,0,0,0,0,1.126,1.1477,1.1517,1.1677,1.1819,1.2027,1.2105,1.2166,1.2326,1.2329,1.2494,1.2547,1.273,1.2849,1.279,1.3094,1.3103,1.312,1.3007,1.3009,1.3009,1.2978,1.2871,0,0,0,0,0,1.1254,1.1373,1.1565,1.1689,1.1756,1.1917,1.2006,1.2087,1.2249,1.2316,1.247,1.2639,1.2808,1.2917,1.3084,1.3273,1.3331,1.3347,1.3347,1.3346,1.336,1.3474,1.3484,1.3378,1.3378,1.3378,0,0,1.1252,1.1385,1.1453,1.1673,1.1792,1.1927,1.1968,1.211,1.2216,1.2344,1.253,1.2652,1.2855,1.3046,1.314,1.3151,1.3402,1.3354,1.3351,1.3367,1.3481,1.3491,1.35,1.3382,1.3381,1.3381,0,0,1.1312,1.1421,1.1535,1.1651,1.1826,1.1933,1.1961,1.216,1.2239,1.2426,1.2525,1.2666,1.2951,1.309,1.3198,1.3313,1.3388,1.3366,1.3369,1.3477,1.3485,1.3494,1.3537,1.355,1.3379,1.3379,1.3379,0,1.129,1.1478,1.1592,1.1723,1.1821,1.1926,1.2051,1.2166,1.2394,1.2467,1.2473,1.283,1.2976,1.3202,1.3229,1.3314,1.3361,1.3338,1.3471,1.3481,1.3491,1.3535,1.355,1.3375,1.3376,1.3376,1.3376,0,1.1444,1.1575,1.165,1.1845,1.1954,1.2083,1.223,1.233,1.2405,1.2516,1.2714,1.2889,1.3092,1.3155,1.3237,1.3397,1.3398,1.3436,1.3448,1.3494,1.3539,1.3556,1.3369,1.3371,1.3372,1.3373,0,0,1.1455,1.1706,1.1732,1.1822,1.2024,1.2137,1.2279,1.2459,1.2542,1.2701,1.283,1.3068,1.3102,1.3226,1.3327,1.3422,1.3504,1.345,1.3458,1.3454,1.3698,1.3665,1.3681,1.3555,1.3559,1.3562,1.3681,0,1.1541,1.1772,1.1879,1.2072,1.2199,1.2302,1.2427,1.2573,1.2683,1.2822,1.2955,1.3118,1.315,1.3225,1.3324,1.3471,1.3556,1.3466,1.3691,1.3697,1.3631,1.3704,1.3671,1.3773,1.3698,1.3701,1.3704,0,1.1672,1.1806,1.2004,1.2189,1.2248,1.2354,1.253,1.2656,1.2832,1.2907,1.304,1.3136,1.3305,1.3306,1.3548,1.3484,1.3586,1.3674,1.3681,1.3707,1.37,1.3733,1.3809,1.3824,1.3732,1.373,1.3728,0,1.1658,1.1894,1.2042,1.2118,1.2337,1.241,1.251,1.2679,1.2782,1.2945,1.3015,1.3203,1.3306,1.3457,1.3607,1.3593,1.3838,1.3851,1.3916,1.3912,1.3961,1.3956,1.4054,1.4027,1.4027,1.4027,1.4026,0,1.1743,1.1861,1.2037,1.2128,1.2268,1.2399,1.254,1.2651,1.2801,1.2929,1.304,1.3161,1.335,1.3502,1.3625,1.3808,1.3857,1.3933,1.3963,1.3921,1.3911,1.3989,1.3985,1.4031,1.403,1.4029,1.4029,0,1.1751,1.1872,1.204,1.223,1.2282,1.2376,1.2549,1.2651,1.2765,1.2925,1.2972,1.3159,1.3342,1.3504,1.3756,1.3838,1.4027,1.4067,1.396,1.3976,1.4031,1.4024,1.4183,1.4213,1.4164,1.4165,1.4165,0,1.1795,1.1885,1.208,1.2162,1.2253,1.2389,1.2489,1.2628,1.2732,1.2936,1.3017,1.3203,1.3358,1.3651,1.3821,1.4015,1.406,1.4103,1.4091,1.4046,1.4062,1.4053,1.4066,1.4102,1.4102,1.4101,1.4101,0,1.1861,1.1915,1.2045,1.2197,1.2309,1.2441,1.2579,1.2647,1.2814,1.2929,1.3104,1.3224,1.3469,1.3659,1.3869,1.3995,1.4081,1.4102,1.4128,1.4085,1.4019,1.4056,1.3957,1.4099,1.4099,1.4099,1.4099,1.41,1.1891,1.1974,1.2121,1.2265,1.2378,1.2503,1.2605,1.2727,1.287,1.3065,1.3145,1.3327,1.3511,1.3799,1.3923,1.408,1.4097,1.4134,1.4144,1.415,1.4142,1.3992,1.4121,1.4122,1.4122,1.4122,1.4123,0,1.1962,1.2059,1.2189,1.2367,1.2483,1.2533,1.2689,1.2788,1.2939,1.3092,1.3238,1.3446,1.363,1.3812,1.4009,1.4102,1.4147,1.415,1.4145,1.4173,1.4116,1.4072,1.4109,1.4109,1.4109,1.4109,1.4109,1.4109,1.2012,1.2156,1.2229,1.2436,1.2541,1.2701,1.2786,1.2908,1.3029,1.3248,1.3392,1.3503,1.3674,1.3884,1.406,1.4111,1.4181,1.4172,1.4234,1.4178,1.4177,1.4176,1.4136,1.4185,1.4186,1.4279,1.4279,1.428]}]]